Visibility
15.0 15.0 15.0 15.0 15.0 13.8 14.7 12.3 15.0 15.0 15.0 12.7 15.0 15.0 13.7 3.8 1.7 13.6 15.0 15.0 15.0 15.0 15.0 15.0 15.0 15.0 15.0 15.0 15.0 15.0 12.4 12.6 15.0 15.0 15.0 15.0 15.0 15.0 15.0 15.0 15.0 15.0 15.0 15.0 15.0
15.0 15.0 12.4 11.6 15.0 15.0 13.2 15.0 15.0 15.0 15.0 15.0 15.0 15.0 15.0 15.0 7.3 0.2 11.0 8.3 15.0 15.0 15.0 15.0 15.0 15.0 15.0 15.0 15.0 15.0 15.0 15.0 15.0 15.0 15.0 15.0 15.0 15.0 15.0 15.0 15.0 15.0 15.0 12.2 15.0
15.0 15.0 15.0 13.8 15.0 11.7 8.2 13.7 9.4 15.0 15.0 15.0 13.2 14.4 5.5 6.0 0.1 2.6 8.4 10.4 10.7 15.0 15.0 15.0 15.0 15.0 15.0 15.0 15.0 15.0 15.0 15.0 15.0 15.0 15.0 15.0 15.0 15.0 15.0 15.0 15.0 15.0 15.0 1.7 15.0
15.0 15.0 15.0 15.0 15.0 15.0 13.0 15.0 15.0 15.0 11.9 13.9 15.0 11.4 14.6 4.1 0.9 15.0 15.0 15.0 2.3 14.1 14.6 15.0 15.0 15.0 15.0 15.0 15.0 15.0 15.0 15.0 15.0 15.0 15.0 15.0 15.0 15.0 15.0 15.0 15.0 15.0 15.0 15.0 15.0
14.6 15.0 9.6 15.0 15.0 15.0 12.3 6.0 15.0 15.0 15.0 15.0 12.7 15.0 0.1 0.0 15.0 15.0 15.0 15.0 8.2 8.4 3.1 15.0 14.5 15.0 15.0 15.0 15.0 15.0 15.0 15.0 15.0 15.0 15.0 15.0 15.0 15.0 15.0 15.0 15.0 15.0 15.0 15.0 15.0
14.6 15.0 12.4 15.0 15.0 15.0 15.0 8.3 7.4 12.2 15.0 11.4 15.0 13.5 14.2 0.0 15.0 15.0 15.0 15.0 5.7 5.7 5.0 12.0 12.9 15.0 15.0 15.0 15.0 15.0 15.0 15.0 15.0 15.0 15.0 15.0 15.0 15.0 15.0 15.0 15.0 15.0 15.0 15.0 15.0
7.5 15.0 14.8 13.9 15.0 15.0 14.8 8.4 12.3 11.9 15.0 15.0 15.0 15.0 15.0 13.9 15.0 15.0 15.0 15.0 15.0 8.9 15.0 15.0 15.0 15.0 15.0 15.0 15.0 15.0 15.0 15.0 15.0 15.0 15.0 15.0 15.0 15.0 15.0 15.0 15.0 15.0 15.0 15.0 15.0
13.8 6.1 15.0 8.1 15.0 13.7 15.0 15.0 14.5 5.2 10.1 15.0 10.2 15.0 15.0 15.0 15.0 15.0 15.0 15.0 14.5 6.5 14.7 9.4 6.9 11.3 15.0 15.0 15.0 15.0 14.6 8.4 15.0 15.0 15.0 15.0 15.0 15.0 15.0 15.0 15.0 15.0 15.0 15.0 15.0
4.6 5.4 15.0 14.7 15.0 15.0 10.7 15.0 15.0 12.0 9.2 9.3 7.2 13.6 15.0 15.0 15.0 15.0 15.0 14.7 8.3 15.0 7.7 5.0 2.7 10.9 15.0 15.0 15.0 15.0 15.0 15.0 15.0 15.0 15.0 15.0 15.0 15.0 15.0 15.0 15.0 15.0 15.0 15.0 15.0
5.6 11.5 15.0 7.1 6.5 11.4 7.4 15.0 7.9 10.2 7.2 12.8 12.4 4.4 15.0 15.0 15.0 15.0 15.0 15.0 12.2 7.0 1.0 0.3 1.0 0.1 5.2 15.0 9.4 14.5 15.0 15.0 15.0 15.0 15.0 15.0 15.0 15.0 15.0 15.0 15.0 15.0 15.0 15.0 15.0
2.2 10.3 12.4 10.7 10.1 7.8 4.4 3.9 15.0 4.6 12.1 14.9 15.0 15.0 15.0 15.0 15.0 15.0 15.0 15.0 15.0 1.3 0.1 2.4 0.1 0.2 6.2 15.0 15.0 15.0 15.0 15.0 15.0 15.0 15.0 15.0 15.0 15.0 15.0 15.0 15.0 15.0 15.0 15.0 15.0
4.9 7.2 12.1 14.6 13.3 8.8 15.0 15.0 15.0 15.0 5.0 15.0 15.0 15.0 15.0 15.0 15.0 15.0 15.0 15.0 4.4 1.1 5.9 0.0 0.0 15.0 15.0 15.0 15.0 15.0 15.0 15.0 15.0 15.0 15.0 15.0 15.0 15.0 15.0 15.0 15.0 15.0 15.0 15.0 15.0
2.4 6.0 9.5 9.5 7.2 9.9 15.0 15.0 15.0 15.0 15.0 15.0 14.6 14.6 14.9 15.0 15.0 15.0 14.8 15.0 15.0 15.0 15.0 11.1 11.9 15.0 15.0 14.3 15.0 15.0 15.0 15.0 15.0 15.0 15.0 15.0 15.0 15.0 15.0 15.0 15.0 15.0 15.0 15.0 15.0
15.0 3.5 11.7 4.9 4.3 15.0 15.0 15.0 15.0 15.0 11.8 14.2 15.0 15.0 15.0 15.0 15.0 15.0 15.0 15.0 13.8 15.0 15.0 9.5 15.0 15.0 14.4 9.9 15.0 15.0 15.0 15.0 15.0 15.0 15.0 15.0 3.3 15.0 15.0 15.0 15.0 15.0 15.0 15.0 15.0
6.2 2.2 4.2 13.6 14.8 15.0 15.0 15.0 13.3 15.0 2.2 15.0 15.0 15.0 15.0 15.0 15.0 15.0 14.2 6.6 15.0 15.0 0.3 6.1 15.0 15.0 14.8 15.0 15.0 15.0 15.0 15.0 15.0 15.0 15.0 14.8 15.0 15.0 15.0 15.0 15.0 15.0 15.0 15.0 15.0
12.0 1.7 4.5 13.3 15.0 15.0 15.0 15.0 15.0 0.1 0.3 1.2 8.9 9.1 2.4 15.0 15.0 15.0 15.0 10.3 14.5 9.8 15.0 15.0 15.0 15.0 15.0 15.0 15.0 15.0 15.0 15.0 15.0 15.0 4.1 15.0 15.0 15.0 15.0 15.0 15.0 15.0 15.0 15.0 15.0
3.9 2.1 4.2 15.0 15.0 15.0 15.0 15.0 0.1 0.2 15.0 1.0 0.1 11.5 15.0 15.0 15.0 15.0 15.0 8.3 10.0 3.1 0.5 15.0 14.0 15.0 15.0 14.3 15.0 15.0 8.0 0.1 0.1 0.0 10.7 15.0 15.0 15.0 15.0 15.0 15.0 15.0 15.0 15.0 15.0
2.3 2.6 9.7 15.0 15.0 15.0 15.0 15.0 11.2 15.0 0.7 15.0 15.0 15.0 15.0 15.0 15.0 15.0 15.0 14.2 15.0 15.0 2.1 11.6 15.0 3.2 13.6 12.8 3.3 14.0 15.0 10.5 0.2 0.3 15.0 15.0 15.0 15.0 15.0 15.0 15.0 15.0 15.0 15.0 15.0
1.2 2.5 5.6 15.0 15.0 15.0 15.0 15.0 15.0 15.0 15.0 15.0 9.6 4.2 0.5 15.0 15.0 15.0 15.0 15.0 15.0 12.7 1.0 0.0 1.4 15.0 15.0 15.0 15.0 13.0 12.7 15.0 15.0 6.6 0.4 15.0 15.0 15.0 15.0 15.0 15.0 15.0 15.0 15.0 15.0
1.3 2.1 5.4 15.0 15.0 15.0 15.0 15.0 15.0 15.0 15.0 15.0 10.3 12.6 0.4 4.4 0.1 15.0 15.0 15.0 15.0 15.0 12.2 9.7 0.1 14.5 15.0 15.0 15.0 15.0 15.0 0.6 5.4 2.1 2.4 15.0 15.0 15.0 15.0 15.0 15.0 15.0 15.0 15.0 15.0
2.4 0.3 4.5 15.0 11.8 14.2 15.0 15.0 15.0 15.0 15.0 15.0 15.0 0.1 0.0 0.1 8.0 0.1 14.3 15.0 15.0 15.0 15.0 14.7 13.9 0.1 5.7 5.4 15.0 8.8 15.0 11.8 14.5 15.0 15.0 15.0 15.0 15.0 15.0 15.0 15.0 15.0 15.0 15.0 15.0
1.6 0.1 2.3 6.2 0.1 8.8 15.0 15.0 15.0 15.0 15.0 15.0 15.0 15.0 14.3 0.1 0.0 1.3 1.3 15.0 15.0 15.0 15.0 15.0 3.3 0.0 1.1 15.0 15.0 15.0 15.0 15.0 15.0 15.0 15.0 15.0 11.3 15.0 15.0 15.0 15.0 15.0 15.0 15.0 15.0
0.1 0.1 2.4 8.9 0.1 0.6 9.4 15.0 15.0 15.0 15.0 15.0 15.0 15.0 15.0 15.0 15.0 1.5 3.2 15.0 15.0 15.0 15.0 15.0 1.3 0.0 0.0 0.1 10.6 15.0 15.0 15.0 15.0 15.0 15.0 15.0 15.0 15.0 15.0 15.0 15.0 15.0 15.0 15.0 15.0
14.1 0.0 0.0 3.4 13.6 15.0 10.5 7.9 0.2 15.0 15.0 15.0 15.0 15.0 15.0 15.0 15.0 6.9 15.0 15.0 15.0 15.0 15.0 10.5 15.0 8.1 2.2 11.5 10.4 14.4 15.0 15.0 15.0 15.0 15.0 15.0 15.0 15.0 15.0 15.0 15.0 15.0 15.0 15.0 15.0
7.8 0.1 4.6 0.1 0.2 15.0 15.0 15.0 15.0 1.0 15.0 15.0 8.2 15.0 15.0 15.0 15.0 15.0 15.0 15.0 15.0 15.0 15.0 14.0 0.2 8.1 15.0 15.0 15.0 15.0 15.0 15.0 15.0 15.0 15.0 15.0 15.0 15.0 15.0 15.0 15.0 15.0 15.0 15.0 15.0
15.0 0.7 10.7 3.7 15.0 15.0 14.9 15.0 15.0 15.0 15.0 15.0 15.0 15.0 15.0 15.0 15.0 15.0 15.0 15.0 15.0 15.0 15.0 14.9 0.1 9.2 14.8 15.0 15.0 9.9 15.0 15.0 15.0 15.0 15.0 15.0 15.0 15.0 15.0 15.0 15.0 15.0 15.0 15.0 15.0
2.9 15.0 15.0 1.4 9.4 15.0 4.7 15.0 15.0 15.0 15.0 15.0 15.0 15.0 15.0 15.0 15.0 15.0 15.0 15.0 15.0 15.0 15.0 10.9 3.9 0.0 0.1 15.0 15.0 0.3 7.8 15.0 15.0 15.0 15.0 15.0 15.0 15.0 15.0 15.0 15.0 15.0 15.0 15.0 15.0